#timestamp,LO_Frequency,Hit,StdDev 
1523505615.5,286047002.1,N
1523505635.3,286047002.5,N
1523505655.2,286047002.2,N
1523505675.9,286047002.3,N
1523505695.7,286046999.7,N
1523505715.6,286047002.3,N
1523505735.4,286046999.8,N
1523505755.2,286047002.2,N
1523505775.1,286047002.5,N
1523505776.0,286047002.5,N
1523505795.8,286047002.5,N
1523505815.7,286047002.3,N
1523505835.5,286046999.7,N
1523505855.3,286046999.9,N
1523505875.2,286047000.3,N
1523505895.0,286046998.2,N
1523505895.9,286046998.2,N
1523505915.8,286047000.9,N
1523505935.6,286046999.7,N
1523505955.4,286046999.7,N
1523505975.3,286047002.5,N
1523505995.1,286047002.3,N
1523506015.8,286047003.6,N
1523506035.7,286047001.4,N
1523506055.5,286047002.3,N
1523506075.4,286047002.8,N
1523506095.2,286047000.1,N
1523506115.0,286047000.1,N
1523506115.9,286047000.1,N
1523506135.8,286047001.4,N
1523506155.6,286047004.0,N
1523506175.4,286047002.2,N
1523506195.3,286047001.6,N
1523506215.1,286047004.0,N
1523506235.9,286047002.5,N
1523506255.7,286047001.9,N
1523506275.5,286047003.7,N
1523506295.4,286047003.4,N
1523506315.2,286047004.3,N
1523506335.0,286047002.1,N
1523506335.9,286047002.1,N
1523506355.8,286047004.2,N
1523506375.6,286047002.7,N
1523506395.5,286047001.8,N
1523506415.3,286047004.4,N
1523506435.1,286047004.1,N
1523506455.9,286047003.6,N
1523506475.7,286047002.0,N
1523506495.5,286047001.3,N
1523506515.4,286047003.6,N
1523506535.2,286047001.8,N
1523506555.1,286046999.7,N
1523506556.0,286046999.7,N
1523506575.8,286047002.6,N
1523506595.6,286047003.4,N
1523506615.5,286047003.7,N
1523506635.3,286047005.8,Y
1523506655.2,286047011.9,P
1523506675.9,286047001.8,N
1523506695.7,286047003.9,N
1523506715.6,286047001.7,N
1523506735.4,286047003.8,N
1523506755.2,286047001.5,N
1523506775.1,286047002.0,N
1523506776.0,286047002.0,N
1523506795.8,286047000.2,N
1523506815.7,286047001.8,N
1523506835.5,286047004.0,N
1523506855.3,286047004.1,N
1523506875.2,286047004.4,N
1523506895.0,286047002.1,N
1523506895.9,286047002.1,N
1523506915.7,286047004.3,N
1523506935.6,286047002.1,N
1523506955.4,286047002.1,N
1523506975.3,286047004.2,N
1523506995.1,286047001.3,N
1523506996.0,286047001.3,N
1523507015.8,286047003.7,N
1523507035.7,286047001.4,N
1523507055.5,286047005.4,N
1523507075.3,286047003.2,N
1523507095.2,286047003.4,N
1523507115.0,286047006.0,N
1523507115.9,286047006.0,N
1523507135.8,286047003.4,N
1523507155.6,286047003.4,N
1523507175.4,286047004.8,N
1523507195.3,286047005.9,Y
1523507215.1,286047001.7,P
1523507235.9,286047002.1,P
1523507255.7,286047003.9,P
1523507275.5,286047001.3,N
1523507295.4,286047002.1,N
1523507315.2,286047004.2,Y
1523507335.1,286047000.1,P
1523507336.0,286047000.1,N
1523507355.8,286046998.3,N
1523507375.6,286047002.8,N
1523507395.5,286047001.2,N
1523507415.3,286046998.4,N
1523507435.1,286046998.1,N
1523507455.9,286047001.2,N
1523507475.7,286047001.2,N
1523507495.6,286047001.1,N
1523507515.4,286046998.1,N
1523507535.2,286046998.8,N
1523507555.1,286047000.8,N
1523507556.0,286047000.8,N
1523507575.8,286046998.5,N
1523507595.6,286047001.0,N
1523507615.5,286046999.7,N
1523507635.3,286047002.5,N
1523507655.2,286047002.0,N
1523507675.9,286046999.9,N
1523507695.7,286047002.7,N
1523507715.6,286047001.9,N
1523507735.4,286047001.4,N
1523507755.2,286047002.0,N
1523507775.1,286047004.4,N
1523507776.0,286047004.4,N
1523507795.8,286047001.4,N
1523507815.7,286047001.5,N
1523507835.5,286047002.4,N
1523507855.3,286047002.3,N
1523507875.2,286047002.6,N
1523507895.0,286047001.3,N
1523507895.9,286047001.3,N
1523507915.7,286046999.9,N
1523507935.6,286046999.8,N
1523507955.4,286047000.5,N
1523507975.3,286047001.2,N
1523507995.1,286047000.5,N
1523507996.0,286047000.5,N
1523508015.8,286046999.7,N
1523508035.7,286047000.0,N
1523508055.5,286047002.1,N
1523508075.4,286047001.7,N
1523508095.2,286047004.4,Y
1523508115.0,286046999.9,P
1523508115.9,286046999.9,N
1523508135.8,286047001.1,N
1523508155.6,286047000.0,N
1523508175.4,286047000.0,N
1523508195.3,286046999.7,N
1523508215.1,286047000.0,N
1523508235.9,286046999.9,N
1523508255.7,286047002.7,Y
1523508275.5,286046999.8,P
1523508295.4,286047000.8,P
1523508315.2,286047000.2,N
1523508335.1,286047000.0,N
1523508366.0,286047001.1,E
1523508375.0,286046995.0,N
1523508375.9,286046995.0,P
1523508395.7,286046994.5,P
1523508415.6,286046995.0,Y
1523508435.4,286047000.9,P
1523508455.3,286046998.8,N
1523508475.1,286046997.6,N
1523508476.0,286046997.6,N
1523508495.8,286046995.5,N
1523508515.7,286046996.4,N
1523508535.5,286046992.6,Y
1523508555.4,286046997.4,P
1523508575.2,286046995.0,P
1523508595.0,286046993.7,P
1523508595.9,286046993.7,Y
1523508615.8,286046995.0,P
1523508635.6,286046998.5,P
1523508655.4,286047004.7,P
1523508675.3,286047008.2,N
1523508695.1,286047011.6,N
1523508715.9,286047017.5,N
1523508735.7,286047022.4,N
1523508755.5,286047024.9,N
1523508775.4,286047022.7,N
1523508795.2,286047019.2,N
1523508815.0,286047018.1,N
1523508815.9,286047018.1,N
1523508835.8,286047014.7,N
1523508855.6,286047016.3,N
1523508875.5,286047017.2,N
1523508895.3,286047014.4,N
1523508915.1,286047016.3,N
1523508935.9,286047020.3,N
1523508955.7,286047021.8,N
1523508975.5,286047022.1,N
1523508995.4,286047028.0,Y
1523509015.2,286047015.2,P
1523509035.1,286047012.1,P
1523509036.0,286047012.1,P
1523509055.8,286047012.4,Y
1523509075.6,286046995.2,P
1523509095.5,286046997.9,N
1523509115.3,286046999.2,N
1523509135.2,286046997.7,N
1523509155.9,286046997.9,N
1523509175.7,286046994.0,N
1523509195.6,286046994.2,N
